Location: Recife
(8.0585°S, 34.8848°W)
Time: 11:16:15
(UTC-03:00)

Explorer 7 - Pass Details

Date: 17 April 2026
Orbit: 427 x 536 km, 50.2° (Epoch: 14 May)

Event Time Altitude Azimuth Distance (km) Brightness Sun altitude
Rises 11:05:48 0° 202° (SSW) 2,522 10.0 71.0°
Reaches altitude 10° 11:08:07 10° 190° (S) 1,662 9.2 71.1°
Maximum altitude 11:11:26 29° 128° (SE) 934 8.3 71.2°
Drops below altitude 10° 11:14:50 10° 67° (ENE) 1,711 9.6 71.3°
Sets 11:17:15 0° 56° (NE) 2,611 10.4 71.3°
